Regional Weather Roundup
Issued by NWS

Home | Current Version | Previous Version | Text Only | Print | Product List | Glossary Off
Versions: 1 2 3 4 5 6 7 8 9 10 11 12 13 14 15 16 17 18 19 20 21 22 23 24 25 26 27 28 29 30 31 32 33 34 35 36 37 38 39 40 41 42 43 44 45 46 47 48 49 50

000
ASUS44 KMEG 242200
RWRTN
TENNESSEE HOURLY STATE WEATHER ROUNDUP
NATIONAL WEATHER SERVICE MEMPHIS TN
500 PM CDT SAT JUN 24 2017

TNZ002-004-019-021-049-052-054-088>092-242300-
WEST TENNESSEE

CITY           SKY/WX    TMP DP  RH WIND       PRES   REMARKS
MEMPHIS INTL   PTSUNNY   80  63  55 N13       30.08F
NWS MEMPHIS      N/A     79 N/A N/A MISG        N/A
JACKSON        PTSUNNY   81  62  52 N12       30.08F
$$

TNZ008-025-027-028-033-062-065-066-242300-
NORTH MIDDLE TENNESSEE

CITY           SKY/WX    TMP DP  RH WIND       PRES   REMARKS
NASHVILLE      PTSUNNY   82  58  43 NW16G22   30.06S
CLARKSVILLE    MOSUNNY   77  58  51 NW10      30.06F
SMYRNA         MOSUNNY   83  60  45 NW16      30.05S
CROSSVILLE     MOSUNNY   77  61  57 NW9       30.07S
$$

TNZ061-075-076-078-094-096-097-242300-
SOUTH MIDDLE TENNESSEE

CITY           SKY/WX    TMP DP  RH WIND       PRES   REMARKS
TULLAHOMA      SUNNY     79  61  53 N9        30.05F
WINCHESTER     MOSUNNY   81  66  61 N9          N/A
MCMINNVILLE    SUNNY     81  63  54 NW9       30.04F
$$

TNZ017-018-042-046-047-242300-
NORTHEAST TENNESSEE

CITY           SKY/WX    TMP DP  RH WIND       PRES   REMARKS
TRI CITIES     PTSUNNY   84  60  44 W12       29.99S
$$

TNZ012-013-036-069-073-074-242300-
CENTRAL EAST TENNESSEE

CITY           SKY/WX    TMP DP  RH WIND       PRES   REMARKS
KNOXVILLE      PTSUNNY   85  60  42 W10       29.98S
OAK RIDGE      SUNNY     85  59  41 VRB5      30.01R
GATLINBURG     PTSUNNY   82  64  54 VRB6      29.98S
$$

TNZ083-085-099-242300-
SOUTHEAST TENNESSEE

CITY           SKY/WX    TMP DP  RH WIND       PRES   REMARKS
CHATTANOOGA    PTSUNNY   88  61  40 NW10      29.99S
$$

SKY/WX REPORTED AS FAIR MEANS FEW OR NO CLOUDS BELOW
12 THOUSAND FEET.





USA.gov is the U.S. government's official web portal to all federal, state and local government web resources and services.